This is the latest recevied weather packets stored in our database for station/object OE-11349. If no packets are shown the sender has not sent any weather packets the latest 10 day(s).
| Time | Temp. | Humidity | Pressure | Rain* | Wind** | Luminosity | Snow |
|---|---|---|---|---|---|---|---|
| 1787949682 | 18.89° C | 54% | 851.4 hPa | - | - | 0 W/m² | - |
| 1787949309 | 19.44° C | 54% | 851.2 hPa | - | - | 0 W/m² | - |
| 1787948709 | 18.89° C | 59% | 851.3 hPa | - | - | 0 W/m² | - |
| 1787947882 | 18.89° C | 60% | 851.1 hPa | - | - | 0 W/m² | - |
| 1787947508 | 19.44° C | 60% | 851 hPa | - | - | 0 W/m² | - |
| 1787946909 | 19.44° C | 59% | 851 hPa | - | - | 0 W/m² | - |
| 1787946082 | 19.44° C | 59% | 851 hPa | - | - | 0 W/m² | - |
| 1787945709 | 19.44° C | 58% | 851.1 hPa | - | - | 0 W/m² | - |
| 1787945108 | 19.44° C | 58% | 851 hPa | - | - | 0 W/m² | - |
| 1787944282 | 19.44° C | 58% | 851.1 hPa | - | - | 0 W/m² | - |
| 1787943909 | 20° C | 58% | 851.2 hPa | - | - | 0 W/m² | - |
| 1787943308 | 19.44° C | 57% | 851.2 hPa | - | - | 0 W/m² | - |
| 1787942482 | 19.44° C | 60% | 851.2 hPa | - | - | 0 W/m² | - |
| 1787942104 | 19.44° C | 60% | 850.9 hPa | - | - | 0 W/m² | - |
| 1787940682 | 20° C | 60% | 851 hPa | - | - | 0 W/m² | - |
| 1787940308 | 20.56° C | 57% | 851.2 hPa | - | - | 0 W/m² | - |
| 1787939708 | 20.56° C | 57% | 851.2 hPa | - | - | 7 W/m² | - |
| 1787938882 | 21.11° C | 57% | 851.1 hPa | - | - | 14 W/m² | - |
| 1787938509 | 21.11° C | 56% | 851.1 hPa | - | - | 21 W/m² | - |
| 1787937909 | 21.11° C | 56% | 851.4 hPa | - | - | 28 W/m² | - |
| 1787937082 | 21.11° C | 56% | 851.4 hPa | - | - | 41 W/m² | - |
| 1787936708 | 21.11° C | 55% | 851.4 hPa | - | - | 48 W/m² | - |
| 1787936108 | 21.11° C | 52% | 851.3 hPa | - | - | 55 W/m² | - |
| 1787935282 | 21.67° C | 52% | 851.2 hPa | - | - | 83 W/m² | - |
| 1787934909 | 22.22° C | 52% | 851.3 hPa | - | - | 110 W/m² | - |
* Rain since midnight (hover to see other rain measurements)
** Current wind speed in m/s (hover to see current wind gust speed)